ASA67 PAPG-PAJN

Flight info

Callsign ASA67
Flight time 0h 31m
Altitude 22000
Route PTRSG2 ZARUT SSR
Aircraft B737/M-SDE2E3FGHIRWXY/LB1

Departure

Time 2026-04-20 20:08
Airport Petersburg James A Johnson Airport (PAPG)

Arrival

Time 2026-04-20 20:39
Airport Juneau International Airport (PAJN)
Time Latitude Longitude Altitude Speed Heading
2026-04-20 19:48 56.80570 -132.93456 117 ft 0 kts 341°
2026-04-20 19:57 56.80556 -132.93448 119 ft 4 kts 349°
2026-04-20 19:58 56.80533 -132.93448 119 ft 4 kts 42°
2026-04-20 19:58 56.80528 -132.93458 118 ft 1 kts 131°
2026-04-20 19:58 56.80531 -132.93464 117 ft 0 kts 131°
2026-04-20 20:00 56.80524 -132.93449 121 ft 4 kts 131°
2026-04-20 20:00 56.80488 -132.93407 120 ft 9 kts 155°
2026-04-20 20:00 56.80421 -132.93373 118 ft 11 kts 188°
2026-04-20 20:01 56.80366 -132.93489 120 ft 16 kts 244°
2026-04-20 20:01 56.80313 -132.93745 119 ft 26 kts 249°
2026-04-20 20:01 56.80247 -132.94103 122 ft 33 kts 251°
2026-04-20 20:01 56.80171 -132.94500 120 ft 32 kts 251°
2026-04-20 20:02 56.80099 -132.94876 118 ft 30 kts 251°
2026-04-20 20:02 56.80032 -132.95223 122 ft 28 kts 251°
2026-04-20 20:02 56.79970 -132.95547 121 ft 26 kts 251°
2026-04-20 20:02 56.79913 -132.95849 120 ft 24 kts 251°
2026-04-20 20:03 56.79875 -132.96066 121 ft 12 kts 261°
2026-04-20 20:03 56.79873 -132.96122 120 ft 1 kts 253°
2026-04-20 20:03 56.79863 -132.96114 119 ft 3 kts 120°
2026-04-20 20:03 56.79869 -132.96073 117 ft 0 kts 69°
2026-04-20 20:07 56.79891 -132.95964 122 ft 38 kts 70°
2026-04-20 20:07 56.80075 -132.95011 120 ft 118 kts 70°
2026-04-20 20:08 56.80420 -132.93280 304 ft 161 kts 68°
2026-04-20 20:08 56.80906 -132.91455 1195 ft 156 kts 49°
2026-04-20 20:08 56.81838 -132.90396 1987 ft 167 kts 24°
2026-04-20 20:08 56.83062 -132.89675 2341 ft 203 kts
2026-04-20 20:09 56.84576 -132.89876 2648 ft 236 kts 343°
2026-04-20 20:09 56.86082 -132.91317 3306 ft 251 kts 326°
2026-04-20 20:09 56.87763 -132.92200 4256 ft 259 kts
2026-04-20 20:09 56.89548 -132.91644 5314 ft 263 kts
2026-04-20 20:10 56.91374 -132.91291 6253 ft 266 kts 349°
2026-04-20 20:10 56.93000 -132.92716 7327 ft 259 kts 315°
2026-04-20 20:10 56.94277 -132.94980 8616 ft 254 kts 312°
2026-04-20 20:10 56.95519 -132.97214 9881 ft 252 kts 311°
2026-04-20 20:11 56.96781 -132.99497 10761 ft 264 kts 310°
2026-04-20 20:11 56.98164 -133.02014 11047 ft 294 kts 311°
2026-04-20 20:11 56.99657 -133.04717 11787 ft 306 kts 310°
2026-04-20 20:11 57.01189 -133.07472 12770 ft 311 kts 310°
2026-04-20 20:12 57.02747 -133.10266 13821 ft 315 kts 310°
2026-04-20 20:12 57.04326 -133.13096 14774 ft 319 kts 309°
2026-04-20 20:12 57.05923 -133.15958 15796 ft 322 kts 309°
2026-04-20 20:13 57.09140 -133.21733 17852 ft 327 kts 309°
2026-04-20 20:13 57.10758 -133.24636 19054 ft 322 kts 308°
2026-04-20 20:13 57.12348 -133.27486 20257 ft 316 kts 307°
2026-04-20 20:13 57.13941 -133.30345 20833 ft 324 kts 308°
2026-04-20 20:14 57.15559 -133.33250 21256 ft 321 kts 307°
2026-04-20 20:14 57.17144 -133.36131 21529 ft 318 kts 307°
2026-04-20 20:14 57.18710 -133.38967 21788 ft 314 kts 307°
2026-04-20 20:14 57.20269 -133.41792 22058 ft 314 kts 307°
2026-04-20 20:15 57.21800 -133.44572 22072 ft 312 kts 307°
2026-04-20 20:15 57.23355 -133.47405 22107 ft 315 kts 307°
2026-04-20 20:15 57.24907 -133.50253 22146 ft 314 kts 307°
2026-04-20 20:15 57.26447 -133.53090 22076 ft 312 kts 307°
2026-04-20 20:16 57.27992 -133.55890 22098 ft 312 kts 307°
2026-04-20 20:16 57.29545 -133.58709 22093 ft 312 kts 307°
2026-04-20 20:16 57.31094 -133.61529 22096 ft 313 kts 307°
2026-04-20 20:16 57.32642 -133.64355 22096 ft 313 kts 307°
2026-04-20 20:17 57.34188 -133.67183 22091 ft 313 kts 307°
2026-04-20 20:17 57.35736 -133.70021 22096 ft 313 kts 307°
2026-04-20 20:17 57.37263 -133.72825 22096 ft 313 kts 307°
2026-04-20 20:17 57.38807 -133.75664 22089 ft 313 kts 307°
2026-04-20 20:18 57.40351 -133.78506 22094 ft 313 kts 307°
2026-04-20 20:18 57.41895 -133.81351 22093 ft 312 kts 307°
2026-04-20 20:18 57.43445 -133.84212 22095 ft 312 kts 307°
2026-04-20 20:18 57.44986 -133.87062 22094 ft 313 kts 307°
2026-04-20 20:19 57.46528 -133.89917 22111 ft 313 kts 307°
2026-04-20 20:19 57.47551 -133.91811 22103 ft 313 kts 307°
2026-04-20 20:19 57.49597 -133.95607 22100 ft 313 kts 307°
2026-04-20 20:19 57.51142 -133.98470 22070 ft 313 kts 307°
2026-04-20 20:20 57.52675 -134.01328 22119 ft 313 kts 307°
2026-04-20 20:20 57.54214 -134.04216 22068 ft 314 kts 307°
2026-04-20 20:20 57.55763 -134.07083 22097 ft 314 kts 307°
2026-04-20 20:20 57.56787 -134.08991 22081 ft 314 kts 307°
2026-04-20 20:21 57.58337 -134.11880 22059 ft 315 kts 307°
2026-04-20 20:21 57.59894 -134.14743 22118 ft 314 kts 307°
2026-04-20 20:21 57.61436 -134.17670 22061 ft 316 kts 307°
2026-04-20 20:21 57.62974 -134.20576 22007 ft 313 kts 307°
2026-04-20 20:22 57.64509 -134.23464 21694 ft 312 kts 307°
2026-04-20 20:22 57.66007 -134.26291 21449 ft 309 kts 307°
2026-04-20 20:22 57.67523 -134.29144 21190 ft 306 kts 307°
2026-04-20 20:22 57.69017 -134.31950 20922 ft 304 kts 307°
2026-04-20 20:23 57.70510 -134.34736 20646 ft 300 kts 307°
2026-04-20 20:23 57.71952 -134.37537 20348 ft 300 kts 307°
2026-04-20 20:23 57.73400 -134.40322 19931 ft 297 kts 307°
2026-04-20 20:23 57.74835 -134.43033 19473 ft 296 kts 307°
2026-04-20 20:24 57.76283 -134.45750 19021 ft 294 kts 308°
2026-04-20 20:24 57.77723 -134.48460 18579 ft 292 kts 308°
2026-04-20 20:24 57.79148 -134.51156 18094 ft 290 kts 307°
2026-04-20 20:24 57.80560 -134.53839 17614 ft 287 kts 308°
2026-04-20 20:25 57.81960 -134.56498 17151 ft 285 kts 308°
2026-04-20 20:25 57.83341 -134.59128 16709 ft 281 kts 308°
2026-04-20 20:25 57.84707 -134.61743 16257 ft 279 kts 308°
2026-04-20 20:25 57.86045 -134.64299 15838 ft 276 kts 308°
2026-04-20 20:26 57.87386 -134.66869 15413 ft 276 kts 308°
2026-04-20 20:26 57.88727 -134.69460 14928 ft 277 kts 308°
2026-04-20 20:26 57.90078 -134.72047 14470 ft 277 kts 308°
2026-04-20 20:26 57.91424 -134.74629 14023 ft 276 kts 308°
2026-04-20 20:27 57.92768 -134.77209 13528 ft 275 kts 308°
2026-04-20 20:27 57.94098 -134.79765 13085 ft 272 kts 309°
2026-04-20 20:27 57.95416 -134.82302 12646 ft 269 kts 309°
2026-04-20 20:27 57.96718 -134.84797 12208 ft 267 kts 311°
2026-04-20 20:28 57.98346 -134.86659 11586 ft 281 kts 332°
2026-04-20 20:28 58.00149 -134.88000 11372 ft 272 kts 332°
2026-04-20 20:28 58.01869 -134.89264 11184 ft 260 kts 332°
2026-04-20 20:28 58.03534 -134.90500 10666 ft 256 kts 332°
2026-04-20 20:29 58.05175 -134.91737 10048 ft 256 kts 332°
2026-04-20 20:29 58.06826 -134.92988 9443 ft 254 kts 333°
2026-04-20 20:29 58.08458 -134.94230 8846 ft 252 kts 333°
2026-04-20 20:29 58.10093 -134.95480 8133 ft 255 kts 333°
2026-04-20 20:30 58.11737 -134.96739 7566 ft 253 kts 333°
2026-04-20 20:30 58.13346 -134.97966 7128 ft 246 kts 332°
2026-04-20 20:30 58.14891 -134.99151 6762 ft 239 kts 332°
2026-04-20 20:30 58.16410 -135.00318 6417 ft 234 kts 332°
2026-04-20 20:31 58.17939 -135.01501 6084 ft 242 kts 332°
2026-04-20 20:31 58.19535 -135.02737 5734 ft 251 kts 332°
2026-04-20 20:31 58.21148 -135.03981 5368 ft 249 kts 333°
2026-04-20 20:31 58.22810 -135.04948 5008 ft 254 kts 351°
2026-04-20 20:32 58.24557 -135.04620 4714 ft 256 kts
2026-04-20 20:32 58.26280 -135.04022 4574 ft 246 kts
2026-04-20 20:32 58.27932 -135.03451 4467 ft 234 kts
2026-04-20 20:32 58.29480 -135.02925 4372 ft 218 kts
2026-04-20 20:33 58.30934 -135.02437 4249 ft 204 kts
2026-04-20 20:33 58.32273 -135.01989 4188 ft 190 kts
2026-04-20 20:33 58.33554 -135.01567 4102 ft 188 kts
2026-04-20 20:33 58.34836 -135.00973 3905 ft 195 kts 25°
2026-04-20 20:34 58.35693 -134.99013 3766 ft 198 kts 77°
2026-04-20 20:34 58.35889 -134.96399 3605 ft 201 kts 88°
2026-04-20 20:34 58.35928 -134.93744 3430 ft 197 kts 94°
2026-04-20 20:34 58.35909 -134.91224 3308 ft 192 kts 94°
2026-04-20 20:35 58.35889 -134.88695 3044 ft 190 kts 94°
2026-04-20 20:35 58.35874 -134.86210 2794 ft 186 kts 95°
2026-04-20 20:35 58.35860 -134.83778 2545 ft 181 kts 95°
2026-04-20 20:35 58.35848 -134.81417 2291 ft 173 kts 95°
2026-04-20 20:36 58.35836 -134.79174 2078 ft 167 kts 95°
2026-04-20 20:36 58.35824 -134.76973 1866 ft 165 kts 95°
2026-04-20 20:36 58.35815 -134.74860 1694 ft 150 kts 95°
2026-04-20 20:36 58.35946 -134.72982 1600 ft 142 kts 75°
2026-04-20 20:37 58.36329 -134.71231 1445 ft 144 kts 69°
2026-04-20 20:37 58.36652 -134.69436 1270 ft 143 kts 82°
2026-04-20 20:37 58.36758 -134.67609 1092 ft 137 kts 96°
2026-04-20 20:37 58.36640 -134.65830 940 ft 134 kts 109°
2026-04-20 20:38 58.36406 -134.64149 718 ft 131 kts 110°
2026-04-20 20:38 58.36165 -134.62488 450 ft 130 kts 111°
2026-04-20 20:38 58.35940 -134.60800 221 ft 132 kts 113°
2026-04-20 20:38 58.35713 -134.59176 44 ft 119 kts 103°
2026-04-20 20:39 58.35525 -134.57837 34 ft 83 kts 105°
2026-04-20 20:39 58.35415 -134.57047 32 ft 40 kts 104°
2026-04-20 20:39 58.35381 -134.56765 33 ft 10 kts 91°
2026-04-20 20:39 58.35427 -134.56678 33 ft 10 kts 15°
2026-04-20 20:40 58.35481 -134.56729 32 ft 10 kts 286°
2026-04-20 20:40 58.35498 -134.56851 33 ft 9 kts 285°
2026-04-20 20:40 58.35515 -134.56970 33 ft 9 kts 285°
2026-04-20 20:40 58.35531 -134.57086 32 ft 9 kts 285°
2026-04-20 20:41 58.35547 -134.57198 32 ft 9 kts 284°
2026-04-20 20:41 58.35561 -134.57308 33 ft 8 kts 284°
2026-04-20 20:41 58.35576 -134.57413 32 ft 9 kts 285°
2026-04-20 20:41 58.35594 -134.57539 34 ft 11 kts 284°
2026-04-20 20:42 58.35615 -134.57700 32 ft 14 kts 284°
2026-04-20 20:42 58.35643 -134.57891 33 ft 16 kts 285°
2026-04-20 20:42 58.35671 -134.58091 31 ft 15 kts 284°
2026-04-20 20:42 58.35697 -134.58281 33 ft 14 kts 285°
2026-04-20 20:43 58.35721 -134.58456 33 ft 10 kts 285°
2026-04-20 20:43 58.35740 -134.58563 33 ft 7 kts 297°
2026-04-20 20:43 58.35743 -134.58577 33 ft 0 kts 296°
2026-04-20 20:47 58.35746 -134.58586 33 ft 2 kts 302°
2026-04-20 20:48 58.35768 -134.58617 33 ft 6 kts 338°
2026-04-20 20:48 58.35809 -134.58584 33 ft 7 kts 36°
2026-04-20 20:48 58.35858 -134.58570 33 ft 7 kts 359°
2026-04-20 20:48 58.35879 -134.58513 33 ft 4 kts 100°
2026-04-20 20:49 58.35874 -134.58474 33 ft 2 kts 104°
2026-04-20 20:49 58.35872 -134.58463 33 ft 0 kts 103°